This demonstration page uses our WeatherBlox Daily Observations layout. Learn more.

Left ArrowRight Arrow

Hourly Observations for July 1, 2019

Temp ( °F °C ) Dew Point ( °F °C ) Humidity (%) Winds ( mph kmh ) Pressure ( in mb ) Visibility ( mi km ) Precip ( " mm )
12:56 am 00:56 Clear 75 23.9 65 18.3 71 71 S 10 17 29.96 1015 10 16 0.00 0.00
1:56 am 01:56 Clear 74 23.3 65 18.3 74 74 S 14 22 29.95 1014 10 16 0.00 0.00
2:56 am 02:56 Clear 72 22.2 65 18.3 79 79 SSW 9 15 29.96 1015 10 16 0.00 0.00
3:56 am 03:56 Clear 70 21.1 65 18.3 84 84 S 8 13 29.96 1015 10 16 0.00 0.00
4:56 am 04:56 Clear 70 21.1 65 18.3 84 84 S 9 15 29.94 1014 10 16 0.00 0.00
5:56 am 05:56 Clear 71 21.7 65 18.3 81 81 SW 8 13 29.95 1014 10 16 0.00 0.00
6:56 am 06:56 Sunny 70 21.1 65 18.3 84 84 S 9 15 29.95 1014 10 16 0.00 0.00
7:56 am 07:56 Sunny 71 21.7 66 18.9 84 84 SSW 9 15 29.94 1014 10 16 0.00 0.00
8:56 am 08:56 Sunny 76 24.4 67 19.4 74 74 SSW 15 24 29.93 1014 10 16 0.00 0.00
9:56 am 09:56 Sunny 80 26.7 68 20 67 67 SSW 15 24 29.93 1014 10 16 0.00 0.00
10:56 am 10:56 Sunny 83 28.3 69 20.6 63 63 S 18 30 29.91 1013 10 16 0.00 0.00
11:56 am 11:56 Sunny 85 29.4 69 20.6 59 59 SSW 13 20 29.93 1014 10 16 0.00 0.00
12:56 pm 12:56 Sunny 86 30 68 20 55 55 SSW 16 26 29.92 1013 10 16 0.00 0.00
1:56 pm 13:56 Partly Cloudy 88 31.1 70 21.1 55 55 SSW 14 22 29.90 1013 10 16 0.00 0.00
2:56 pm 14:56 Mostly Sunny 89 31.7 70 21.1 53 53 S 14 22 29.89 1012 10 16 0.00 0.00
3:56 pm 15:56 Sunny 90 32.2 69 20.6 50 50 SSW 15 24 29.88 1012 10 16 0.00 0.00
4:56 pm 16:56 Sunny 89 31.7 67 19.4 48 48 S 14 22 29.87 1012 10 16 0.00 0.00
5:56 pm 17:56 Sunny 89 31.7 68 20 50 50 S 12 19 29.84 1011 10 16 0.00 0.00
6:56 pm 18:56 Sunny 86 30 65 18.3 49 49 S 13 20 29.83 1010 10 16 0.00 0.00
7:56 pm 19:56 Sunny 82 27.8 65 18.3 56 56 SSE 12 19 29.83 1010 10 16 0.00 0.00
8:56 pm 20:56 Sunny 79 26.1 66 18.9 65 65 S 8 13 29.87 1012 10 16 0.00 0.00
9:56 pm 21:56 Clear 81 27.2 65 18.3 58 58 WSW 13 20 29.87 1012 10 16 0.00 0.00
10:56 pm 22:56 Clear 77 25 66 18.9 69 69 N 6 9 29.89 1012 10 16 0.00 0.00
11:56 pm 23:56 Clear 73 22.8 67 19.4 81 81 NNE 7 11 29.90 1013 10 16 0.00 0.00

Powered by AerisWeather